Simultaneous Nadir Overpasses (SNOs) Predictions

Prediction of SNOs between GOES-16 and METOP-C Satellite Orbit:

Table of predicted SNOs for the next 14.0 days since TLE Epoch: 4/11/2021
Index Date Time (GOES-16) GOES-16 Lat,Lon METOP-C Lat,Lon Distance(km) Time Diff (sec)
1 04/12/2021 02:24:44 -0.05, -75.19 0.33, -73.59 183.62 80
2 04/13/2021 14:43:36 0.05, -75.22 0.68, -78.15 332.94 80
3 04/14/2021 14:25:36 0.05, -75.23 -0.43, -73.16 236.79 80
4 04/16/2021 02:44:37 -0.05, -75.22 -0.58, -77.76 288.55 80
5 04/17/2021 02:21:17 -0.04, -75.22 0.52, -72.76 281.12 80
6 04/18/2021 14:40:10 0.04, -75.26 0.47, -77.33 235.05 80
7 04/19/2021 14:22:10 0.04, -75.27 -0.64, -72.33 335.00 80
8 04/21/2021 02:41:10 -0.03, -75.26 -0.39, -76.93 189.71 80
9 04/22/2021 02:17:51 -0.03, -75.27 0.72, -71.93 380.48 80
10 04/23/2021 14:36:42 0.03, -75.32 0.32, -76.49 134.78 80
11 04/24/2021 14:18:44 0.03, -75.33 -0.85, -71.51 436.05 80
